Time,TemperatureF,DewpointF,PressureIn,WindDirection,WindDirectionDegrees,WindSpeedMPH,WindSpeedGustMPH,Humidity,HourlyPrecipIn,Conditions,Clouds,dailyrainin,SoftwareType,DateUTC
2014-02-13 00:22:00,32.0,-99.9,-100.00,West,275,23.0,35.0,-999,-99.99,,,-99.99,,2014-02-13 07:22:00,
2014-02-13 00:32:00,32.0,-99.9,-100.00,West,275,23.0,35.0,-999,-99.99,,,-99.99,,2014-02-13 07:32:00,
2014-02-13 01:22:00,30.0,-99.9,-100.00,WNW,294,23.0,37.0,-999,-99.99,,,-99.99,,2014-02-13 08:22:00,
2014-02-13 01:32:00,30.0,-99.9,-100.00,WNW,294,23.0,37.0,-999,-99.99,,,-99.99,,2014-02-13 08:32:00,
2014-02-13 02:22:00,30.0,-99.9,-100.00,West,272,32.0,36.0,-999,-99.99,,,-99.99,,2014-02-13 09:22:00,
2014-02-13 02:33:00,30.0,-99.9,-100.00,West,272,32.0,36.0,-999,-99.99,,,-99.99,,2014-02-13 09:33:00,
2014-02-13 03:23:00,30.0,-99.9,-100.00,WNW,289,19.0,36.0,-999,-99.99,,,-99.99,,2014-02-13 10:23:00,
2014-02-13 03:34:00,30.0,-99.9,-100.00,WNW,289,19.0,36.0,-999,-99.99,,,-99.99,,2014-02-13 10:34:00,
2014-02-13 04:22:00,28.0,-99.9,-100.00,WNW,284,15.0,22.0,-999,-99.99,,,-99.99,,2014-02-13 11:22:00,
2014-02-13 04:33:00,28.0,-99.9,-100.00,WNW,284,15.0,22.0,-999,-99.99,,,-99.99,,2014-02-13 11:33:00,
2014-02-13 05:22:00,28.0,-99.9,-100.00,West,275,22.0,28.0,-999,-99.99,,,-99.99,,2014-02-13 12:22:00,
2014-02-13 05:32:00,28.0,-99.9,-100.00,West,275,22.0,28.0,-999,-99.99,,,-99.99,,2014-02-13 12:32:00,
2014-02-13 06:22:00,30.0,-99.9,-100.00,West,271,22.0,23.0,-999,-99.99,,,-99.99,,2014-02-13 13:22:00,
2014-02-13 06:32:00,30.0,-99.9,-100.00,West,271,22.0,23.0,-999,-99.99,,,-99.99,,2014-02-13 13:32:00,
2014-02-13 07:22:00,30.0,-99.9,-100.00,NW,315,16.0,23.0,-999,-99.99,,,-99.99,,2014-02-13 14:22:00,
2014-02-13 07:32:00,30.0,-99.9,-100.00,NW,315,16.0,23.0,-999,-99.99,,,-99.99,,2014-02-13 14:32:00,
2014-02-13 08:22:00,32.0,-99.9,-100.00,NW,305,19.0,24.0,-999,-99.99,,,-99.99,,2014-02-13 15:22:00,
2014-02-13 08:34:00,32.0,-99.9,-100.00,NW,305,19.0,24.0,-999,-99.99,,,-99.99,,2014-02-13 15:34:00,
2014-02-13 09:23:00,34.0,-99.9,-100.00,WNW,288,16.0,33.0,-999,-99.99,,,-99.99,,2014-02-13 16:23:00,
2014-02-13 09:33:00,34.0,-99.9,-100.00,WNW,288,16.0,33.0,-999,-99.99,,,-99.99,,2014-02-13 16:33:00,
2014-02-13 10:22:00,37.0,-99.9,-100.00,WNW,284,18.0,29.0,-999,-99.99,,,-99.99,,2014-02-13 17:22:00,
2014-02-13 10:33:00,37.0,-99.9,-100.00,WNW,284,18.0,29.0,-999,-99.99,,,-99.99,,2014-02-13 17:33:00,
2014-02-13 11:22:00,37.0,-99.9,-100.00,WNW,283,24.0,38.0,-999,-99.99,,,-99.99,,2014-02-13 18:22:00,
2014-02-13 11:32:00,37.0,-99.9,-100.00,WNW,283,24.0,38.0,-999,-99.99,,,-99.99,,2014-02-13 18:32:00,
2014-02-13 12:23:00,37.0,-99.9,-100.00,West,281,23.0,39.0,-999,-99.99,,,-99.99,,2014-02-13 19:23:00,
2014-02-13 12:33:00,37.0,-99.9,-100.00,West,281,23.0,39.0,-999,-99.99,,,-99.99,,2014-02-13 19:33:00,
2014-02-13 13:12:00,37.0,-99.9,-100.00,WNW,284,51.0,51.0,-999,-99.99,,,-99.99,,2014-02-13 20:12:00,
2014-02-13 13:22:00,37.0,-99.9,-100.00,West,277,27.0,50.0,-999,-99.99,,,-99.99,,2014-02-13 20:22:00,
2014-02-13 13:32:00,37.0,-99.9,-100.00,West,277,27.0,50.0,-999,-99.99,,,-99.99,,2014-02-13 20:32:00,
2014-02-13 14:22:00,37.0,-99.9,-100.00,West,275,26.0,41.0,-999,-99.99,,,-99.99,,2014-02-13 21:22:00,
2014-02-13 14:33:00,37.0,-99.9,-100.00,West,275,26.0,41.0,-999,-99.99,,,-99.99,,2014-02-13 21:33:00,
2014-02-13 14:54:00,37.0,-99.9,-100.00,WNW,289,31.0,50.0,-999,-99.99,,,-99.99,,2014-02-13 21:54:00,
2014-02-13 15:03:00,37.0,-99.9,-100.00,WNW,289,31.0,50.0,-999,-99.99,,,-99.99,,2014-02-13 22:03:00,
2014-02-13 15:23:00,37.0,-99.9,-100.00,WNW,301,55.0,55.0,-999,-99.99,,,-99.99,,2014-02-13 22:23:00,
2014-02-13 15:30:00,37.0,-99.9,-100.00,WNW,284,29.0,50.0,-999,-99.99,,,-99.99,,2014-02-13 22:30:00,
2014-02-13 15:43:00,37.0,-99.9,-100.00,WNW,288,47.0,48.0,-999,-99.99,,,-99.99,,2014-02-13 22:43:00,
2014-02-13 15:53:00,37.0,-99.9,-100.00,WNW,284,30.0,50.0,-999,-99.99,,,-99.99,,2014-02-13 22:53:00,
2014-02-13 16:13:00,37.0,-99.9,-100.00,NW,306,34.0,50.0,-999,-99.99,,,-99.99,,2014-02-13 23:13:00,
2014-02-13 16:22:00,37.0,-99.9,-100.00,WNW,284,29.0,50.0,-999,-99.99,,,-99.99,,2014-02-13 23:22:00,
2014-02-13 16:30:00,34.0,-99.9,-100.00,West,269,40.0,40.0,-999,-99.99,,,-99.99,,2014-02-13 23:30:00,
2014-02-13 17:22:00,34.0,-99.9,-100.00,West,269,40.0,40.0,-999,-99.99,,,-99.99,,2014-02-14 00:22:00,
2014-02-13 18:22:00,34.0,-99.9,-100.00,West,278,30.0,52.0,-999,-99.99,,,-99.99,,2014-02-14 01:22:00,
2014-02-13 18:42:00,34.0,-99.9,-100.00,West,278,31.0,59.0,-999,-99.99,,,-99.99,,2014-02-14 01:42:00,
2014-02-13 18:52:00,32.0,-99.9,-100.00,WNW,300,36.0,55.0,-999,-99.99,,,-99.99,,2014-02-14 01:52:00,
2014-02-13 19:12:00,32.0,-99.9,-100.00,WNW,291,36.0,65.0,-999,-99.99,,,-99.99,,2014-02-14 02:12:00,
2014-02-13 19:20:00,32.0,-99.9,-100.00,WNW,290,30.0,50.0,-999,-99.99,,,-99.99,,2014-02-14 02:20:00,
2014-02-13 19:22:00,32.0,-99.9,-100.00,WNW,291,50.0,50.0,-999,-99.99,,,-99.99,,2014-02-14 02:22:00,
2014-02-13 19:42:00,32.0,-99.9,-100.00,WNW,294,30.0,57.0,-999,-99.99,,,-99.99,,2014-02-14 02:42:00,
2014-02-13 19:53:00,32.0,-99.9,-100.00,West,269,51.0,51.0,-999,-99.99,,,-99.99,,2014-02-14 02:53:00,
2014-02-13 20:12:00,32.0,-99.9,-100.00,WNW,290,30.0,50.0,-999,-99.99,,,-99.99,,2014-02-14 03:12:00,
2014-02-13 21:13:00,30.0,-99.9,-100.00,WNW,282,32.0,49.0,-999,-99.99,,,-99.99,,2014-02-14 04:13:00,
2014-02-13 21:24:00,30.0,-99.9,-100.00,West,275,34.0,55.0,-999,-99.99,,,-99.99,,2014-02-14 04:24:00,
2014-02-13 21:43:00,30.0,-99.9,-100.00,West,281,34.0,52.0,-999,-99.99,,,-99.99,,2014-02-14 04:43:00,
2014-02-13 21:53:00,30.0,-99.9,-100.00,West,275,30.0,51.0,-999,-99.99,,,-99.99,,2014-02-14 04:53:00,
2014-02-13 22:02:00,30.0,-99.9,-100.00,West,275,30.0,51.0,-999,-99.99,,,-99.99,,2014-02-14 05:02:00,
2014-02-13 22:12:00,30.0,-99.9,-100.00,West,275,30.0,51.0,-999,-99.99,,,-99.99,,2014-02-14 05:12:00,
2014-02-13 22:23:00,30.0,-99.9,-100.00,WNW,284,21.0,50.0,-999,-99.99,,,-99.99,,2014-02-14 05:23:00,